Location: Horowhenua
(40.7500°S, 175.3333°E)
Time: 05:52:30
(UTC+00:00)

Cosmos 2278 Rocket - Pass Details

Date: 28 January 2023
Orbit: 841 x 845 km, 71.0° (Epoch: 01 April)

Event Time Altitude Azimuth Distance (km) Brightness Sun altitude
Exits shadow 13:29:35 39° 244° (WSW) 1,269 3.1 -29.6°
Maximum altitude 13:29:47 39° 239° (WSW) 1,266 3.1 -29.5°
Drops below altitude 10° 13:35:06 10° 171° (S) 2,493 5.6 -29.3°
Sets 13:37:45 0° 162° (SSE) 3,434 6.6 -29.1°
